Hat Yai, Thailand

2:50 PM +07 on May 25, 2018 (GMT +0700)
Hat Yai International

Weather History for VTSS - October, 2012

Change the Weather History Date:

Friday, October 12, 2012

  Actual Average Record
Temperature  
Mean Temperature 82 °F -  
Max Temperature 89 °F 85 °F 95 °F (2016)
Min Temperature 75 °F 74 °F 72 °F (2015)
Cooling Degree Days 17    
Growing Degree Days 32 (Base 50)    
Moisture  
Dew Point 74 °F    
Average Humidity 79    
Maximum Humidity 94    
Minimum Humidity 66    
Precipitation  
Precipitation 0.00 in - - ()
Sea Level Pressure  
Sea Level Pressure 29.83 in    
Wind  
Wind Speed 2 mph ()    
Max Wind Speed 10 mph    
Max Gust Speed -    
Visibility 5.0 miles    
Events Fog , Rain    
Averages and records for this station are not official NWS values.
T = Trace of Precipitation, MM = Missing Value Source: Averaged Metar Reports

Daily Weather History Graph

Daily Weather History Graph

Search for Another Location

Airport or City:

Astronomy

Oct. 12, 2012 Rise Set
Actual Time 6:05 AM +07 6:04 PM +07
Civil Twilight 5:44 AM +07 6:25 PM +07
Nautical Twilight 5:19 AM +07 6:49 PM +07
Astronomical Twilight 4:55 AM +07 7:13 PM +07
Moon 2:54 AM +07 (10/12) 3:23 PM +07 (10/12)
Length of Visible Light 12h 41m
Length of Day
11h 59m
Waning Crescent, 14% of the Moon is Illuminated
Oct 12
Waning Crescent
Oct 15
New
Oct 22
First Quarter
Oct 30
Full
Nov 7
Last Quarter

Hourly Weather History & Observations

Time (+07) Temp. Heat Index Dew Point Humidity Pressure Visibility Wind Dir Wind Speed Gust Speed Precip Events Conditions
12:00 AM 78.8 °F - 71.6 °F 78% 29.86 in 6.2 mi Calm Calm - N/A   Mostly Cloudy
12:30 AM 77.0 °F - 71.6 °F 83% 29.86 in 6.2 mi Calm Calm - N/A   Mostly Cloudy
1:00 AM 77 °F - 72 °F 79% 29.87 in 6 mi Calm Calm - -   Scattered Clouds
1:00 AM 77.0 °F - 71.6 °F 83% 29.86 in 6.2 mi Calm Calm - N/A   Mostly Cloudy
1:30 AM 77.0 °F - 71.6 °F 83% 29.86 in 5.0 mi Calm Calm - N/A Rain Light Rain
2:00 AM 77.0 °F - 71.6 °F 83% 29.83 in 5.0 mi Calm Calm - N/A Rain Light Rain
2:30 AM 77.0 °F - 71.6 °F 83% 29.80 in 5.0 mi SSE 2.3 mph - N/A   Mostly Cloudy
3:00 AM 77.0 °F - 71.6 °F 83% 29.80 in 4.3 mi SE 2.3 mph - N/A   Mostly Cloudy
3:30 AM 77.0 °F - 71.6 °F 83% 29.80 in 3.1 mi Calm Calm - N/A   Mostly Cloudy
4:00 AM 77.0 °F - 71.6 °F 83% 29.80 in 3.1 mi Calm Calm - N/A   Mostly Cloudy
5:30 AM 75.2 °F - 71.6 °F 89% 29.83 in 0.9 mi Calm Calm - N/A   Mostly Cloudy
5:35 AM 75.2 °F - 71.6 °F 89% 29.83 in 0.5 mi Calm Calm - N/A   Overcast
6:00 AM 75.2 °F - 71.6 °F 89% 29.83 in 0.2 mi West 3.5 mph - N/A Fog Fog
6:30 AM 75.2 °F - 73.4 °F 94% 29.86 in 0.1 mi Calm Calm - N/A Fog Fog
7:00 AM 76 °F - 73 °F 86% 29.86 in 0 mi Calm Calm - - Fog Heavy Fog
7:30 AM 77.0 °F - 73.4 °F 89% 29.86 in 0.2 mi Calm Calm - N/A Fog Fog
8:00 AM 77.0 °F - 73.4 °F 89% 29.89 in 0.9 mi Calm Calm - N/A   Mostly Cloudy
8:10 AM 78.8 °F - 75.2 °F 89% 29.89 in 2.5 mi Calm Calm - N/A   Mostly Cloudy
8:30 AM 80.6 °F 87.1 °F 77.0 °F 89% 29.89 in 4.3 mi East 3.5 mph - N/A   Mostly Cloudy
9:00 AM 82.4 °F 92.4 °F 78.8 °F 89% 29.89 in 5.6 mi WSW 3.5 mph - N/A   Mostly Cloudy
9:30 AM 84.2 °F 96.1 °F 78.8 °F 84% 29.89 in 6.2 mi North 4.6 mph - N/A   Mostly Cloudy
10:00 AM 84.2 °F 96.1 °F 78.8 °F 84% 29.89 in 6.2 mi NNE 6.9 mph - N/A   Mostly Cloudy
11:00 AM 87.8 °F 104.9 °F 80.6 °F 79% 29.86 in 6.2 mi NNW 3.5 mph - N/A   Mostly Cloudy
11:30 AM 87.8 °F 104.9 °F 80.6 °F 79% 29.86 in 6.2 mi NNW 3.5 mph - N/A   Mostly Cloudy
12:00 PM 89.6 °F 104.7 °F 78.8 °F 70% 29.83 in 6.2 mi NNE 8.1 mph - N/A   Mostly Cloudy
12:30 PM 87.8 °F 102.5 °F 78.8 °F 75% 29.83 in 6.2 mi NNE 5.8 mph - N/A   Mostly Cloudy
1:00 PM 88 °F - 80 °F 73% 29.82 in 6 mi North 6.9 mph - -   Partly Cloudy
1:00 PM 87.8 °F 99.7 °F 77.0 °F 70% 29.80 in 6.2 mi North 6.9 mph - N/A   Mostly Cloudy
1:30 PM 87.8 °F 99.7 °F 77.0 °F 70% 29.80 in 6.2 mi NNE 10.4 mph - N/A   Mostly Cloudy
2:00 PM 87.8 °F 99.7 °F 77.0 °F 70% 29.77 in 6.2 mi NNE 8.1 mph - N/A   Mostly Cloudy
2:30 PM 87.8 °F 99.7 °F 77.0 °F 70% 29.77 in 6.2 mi NNE 6.9 mph - N/A   Mostly Cloudy
3:00 PM 87.8 °F 99.7 °F 77.0 °F 70% 29.77 in 6.2 mi NNE 6.9 mph - N/A   Mostly Cloudy
3:30 PM 87.8 °F 97.6 °F 75.2 °F 66% 29.74 in 6.2 mi ENE 5.8 mph - N/A   Mostly Cloudy
4:00 PM 86.0 °F 95.1 °F 75.2 °F 70% 29.74 in 6.2 mi East 10.4 mph - N/A   Mostly Cloudy
4:30 PM 86.0 °F 93.4 °F 73.4 °F 66% 29.74 in 6.2 mi ENE 6.9 mph - N/A   Mostly Cloudy
5:30 PM 84.2 °F 90.9 °F 73.4 °F 70% 29.77 in 6.2 mi ENE 4.6 mph - N/A   Mostly Cloudy
6:00 PM 82.4 °F 88.2 °F 73.4 °F 74% 29.80 in 6.2 mi East 3.5 mph - N/A   Mostly Cloudy
6:30 PM 82.4 °F 87.2 °F 71.6 °F 70% 29.80 in 6.2 mi ENE 4.6 mph - N/A   Mostly Cloudy
7:00 PM 82 °F - 73 °F 67% 29.80 in 6 mi Calm Calm - -   Scattered Clouds
7:00 PM 82.4 °F 88.2 °F 73.4 °F 74% 29.80 in 6.2 mi ENE 3.5 mph - N/A   Mostly Cloudy
7:30 PM 80.6 °F 84.6 °F 71.6 °F 74% 29.80 in 6.2 mi Calm Calm - N/A   Mostly Cloudy
8:00 PM 80.6 °F 85.4 °F 73.4 °F 79% 29.83 in 6.2 mi Calm Calm - N/A   Mostly Cloudy
8:30 PM 80.6 °F 84.6 °F 71.6 °F 74% 29.83 in 6.2 mi Calm Calm - N/A   Mostly Cloudy
9:00 PM 80.6 °F 85.4 °F 73.4 °F 79% 29.86 in 6.2 mi Calm Calm - N/A   Mostly Cloudy
9:30 PM 80.6 °F 85.4 °F 73.4 °F 79% 29.89 in 6.2 mi Calm Calm - N/A   Mostly Cloudy
10:00 PM 78.8 °F - 71.6 °F 78% 29.89 in 6.2 mi Calm Calm - N/A   Mostly Cloudy
10:30 PM 78.8 °F - 71.6 °F 78% 29.89 in 6.2 mi Calm Calm - N/A   Mostly Cloudy
11:00 PM 77.0 °F - 71.6 °F 83% 29.89 in 6.2 mi Calm Calm - N/A   Mostly Cloudy
11:30 PM 77.0 °F - 71.6 °F 83% 29.86 in 6.2 mi Calm Calm - N/A   Mostly Cloudy